Weather reports worldwide

Advertisment
Ukiah, ca, United States of America (2074944): temperature & dewpoint: 18.05.2019 23:00:00 - 24.05.2019 23:00:00 (PDT)Ukiah, ca, United States of America (2074944): wind speed & gusts: 18.05.2019 23:00:00 - 24.05.2019 23:00:00 (PDT)Ukiah, ca, United States of America (2074944): wind direction: 18.05.2019 23:00:00 - 24.05.2019 23:00:00 (PDT)Ukiah, ca, United States of America (2074944): reduced air pressure: 18.05.2019 23:00:00 - 24.05.2019 23:00:00 (PDT)Ukiah, ca, United States of America (2074944): visibility: 18.05.2019 23:00:00 - 24.05.2019 23:00:00 (PDT)Ukiah, ca, United States of America (2074944): precipitation: 18.05.2019 23:00:00 - 24.05.2019 23:00:00 (PDT)
Date & Time tt [°C] td [°C] ff [km/h] ff [kn] fx [km/h] fx [kn] dd ppp [hPa] vv [km] rr [mm]
24.05.2019 23:00:00 12,8 9,4 0 0 - - N 1012,1 16 -
24.05.2019 22:00:00 15,0 10,0 0 0 - - N 1012,5 16 -
24.05.2019 21:00:00 16,7 9,4 8 4 - - N 1012,4 16 -
24.05.2019 20:00:00 18,3 9,4 11 6 - - N 1012,5 16 -
24.05.2019 19:00:00 21,1 9,4 16 9 - - N 1012,3 16 -
24.05.2019 18:00:00 22,8 9,4 13 7 - - NNE 1012,1 16 -
24.05.2019 17:00:00 23,9 9,4 16 9 - - W 1011,7 16 -
24.05.2019 16:00:00 24,4 12,8 8 4 - - SSE 1012,1 16 -
24.05.2019 15:00:00 23,9 12,8 8 4 - - - 1012,6 16 -
24.05.2019 14:00:00 21,7 11,7 11 6 - - - 1013,8 16 -
24.05.2019 13:00:00 20,0 11,1 8 4 - - SE 1014,9 16 -
24.05.2019 12:00:00 17,2 10,6 8 4 - - - 1015,8 16 -
24.05.2019 11:00:00 14,4 10,0 0 0 - - N 1016,6 16 -
24.05.2019 10:00:00 13,3 9,4 0 0 - - N 1016,9 16 -
24.05.2019 09:00:00 12,2 9,4 9 5 - - ESE 1016,3 16 -
24.05.2019 08:00:00 11,7 9,4 15 8 - - SE 1015,8 16 -
24.05.2019 07:00:00 11,7 9,4 11 6 - - SSE 1015,6 16 -
24.05.2019 06:00:00 11,7 9,4 11 6 - - SSE 1015,3 16 -
24.05.2019 05:00:00 11,7 10,0 9 5 - - SSE 1015,1 16 -
24.05.2019 04:00:00 11,7 10,0 11 6 - - SSE 1014,8 16 -
24.05.2019 03:00:00 11,7 10,0 9 5 - - SSE 1014,6 15 -
24.05.2019 02:00:00 13,3 10,0 15 8 - - SSE 1014,0 16 -
24.05.2019 01:00:00 13,9 11,1 0 0 - - N 1013,8 16 -
24.05.2019 00:00:00 15,0 12,2 0 0 - - N 1013,3 16 -
23.05.2019 23:00:00 15,6 11,7 0 0 - - N 1012,6 16 -
23.05.2019 22:00:00 17,8 11,7 0 0 - - N 1012,0 16 -
23.05.2019 21:00:00 19,4 11,1 0 0 - - N 1010,8 16 -
23.05.2019 20:00:00 20,6 11,1 5 3 - - SSW 1010,2 16 -
23.05.2019 19:00:00 22,8 9,4 9 5 - - SW 1009,3 16 0,0
23.05.2019 18:00:00 23,9 10,0 18 10 - - WNW 1008,8 16 0,0
23.05.2019 17:00:00 25,0 10,0 8 4 - - W 1008,2 16 -
23.05.2019 16:00:00 26,1 6,1 5 3 - - - 1008,1 16 -
23.05.2019 15:00:00 24,4 5,6 0 0 - - N 1008,4 16 -
23.05.2019 14:00:00 24,4 7,2 11 6 - - - 1008,2 16 -
23.05.2019 13:00:00 25,0 6,7 8 4 - - - 1008,1 16 -
23.05.2019 12:00:00 22,8 7,8 13 7 - - N 1008,0 16 -
23.05.2019 11:00:00 20,6 8,9 8 4 - - - 1008,0 16 -
23.05.2019 10:00:00 18,3 7,8 5 3 - - - 1008,4 16 -
23.05.2019 09:00:00 15,0 8,9 0 0 - - N 1008,9 16 -
23.05.2019 08:00:00 12,8 9,4 5 3 - - NNW 1008,9 16 -
23.05.2019 07:00:00 11,1 9,4 0 0 - - N 1008,9 16 -
23.05.2019 06:00:00 10,0 8,9 0 0 - - N 1009,0 16 -
23.05.2019 05:00:00 10,0 8,3 0 0 - - N 1009,0 16 -
23.05.2019 04:00:00 10,6 8,9 0 0 - - N 1009,2 16 -
23.05.2019 03:00:00 11,1 8,9 0 0 - - N 1009,4 16 -
23.05.2019 02:00:00 11,1 9,4 0 0 - - N 1009,6 16 -
23.05.2019 01:00:00 12,2 10,0 5 3 - - SSW 1009,8 16 -
23.05.2019 00:00:00 12,8 10,0 5 3 - - S 1010,1 16 -
22.05.2019 23:00:00 15,0 10,0 5 3 - - - 1010,1 16 -
22.05.2019 22:00:00 16,1 10,0 0 0 - - N 1010,0 16 -
22.05.2019 21:00:00 16,7 10,6 5 3 - - - 1009,5 16 -
22.05.2019 20:00:00 19,4 10,0 11 6 - - N 1008,8 16 -
22.05.2019 19:00:00 21,7 9,4 15 8 - - NNE 1008,5 16 -
22.05.2019 18:00:00 21,7 9,4 5 3 - - - 1008,6 16 -
22.05.2019 17:00:00 23,3 9,4 18 10 - - NW 1008,5 16 -
22.05.2019 16:00:00 23,3 8,9 16 9 - - WNW 1008,6 16 -
22.05.2019 15:00:00 22,2 8,3 18 10 - - NW 1009,5 16 -
22.05.2019 14:00:00 21,7 8,3 15 8 - - NW 1009,6 16 -
22.05.2019 13:00:00 20,0 8,3 13 7 - - NNW 1010,1 16 -
22.05.2019 12:00:00 18,3 8,3 16 9 - - WNW 1010,4 16 -
22.05.2019 11:00:00 16,7 7,8 13 7 - - N 1010,7 16 -
22.05.2019 10:00:00 14,4 7,8 0 0 - - N 1011,1 16 -
22.05.2019 09:00:00 12,2 7,8 5 3 - - - 1011,5 16 -
22.05.2019 08:00:00 9,4 7,2 0 0 - - N 1011,6 16 -
22.05.2019 07:00:00 8,3 6,7 0 0 - - N 1011,4 16 -
22.05.2019 06:00:00 7,8 6,1 0 0 - - N 1010,8 16 -
22.05.2019 05:00:00 7,8 6,1 0 0 - - N 1010,3 16 -
22.05.2019 04:00:00 8,3 6,7 8 4 - - WNW 1010,1 16 -
22.05.2019 03:00:00 8,9 7,2 0 0 - - N 1010,0 16 -
22.05.2019 02:00:00 10,0 7,2 8 4 - - NNW 1010,1 16 -
22.05.2019 01:00:00 10,6 7,8 8 4 - - ENE 1010,2 16 -
22.05.2019 00:00:00 10,6 8,9 0 0 - - N 1010,7 16 -
21.05.2019 23:00:00 10,6 8,3 5 3 - - N 1010,6 16 -
21.05.2019 22:00:00 11,1 7,8 13 7 - - NNW 1010,5 16 0,0
21.05.2019 21:00:00 11,7 7,8 18 10 - - NNW 1009,9 16 0,3
21.05.2019 20:00:00 11,1 8,3 11 6 - - N 1010,0 11 0,0
21.05.2019 19:00:00 11,7 7,8 21 11 48 26 NNW 1009,9 8 0,0
21.05.2019 18:00:00 12,8 7,8 21 11 50 27 NNW 1010,2 13 0,0
21.05.2019 17:00:00 12,8 8,3 21 11 48 26 NW 1010,5 16 0,0
21.05.2019 16:00:00 13,3 8,3 15 8 48 26 NW 1011,0 13 0,0
21.05.2019 15:00:00 13,9 8,9 16 9 - - NNW 1011,4 13 0,0
21.05.2019 14:00:00 14,4 7,8 21 11 - - NNW 1011,7 16 0,3
21.05.2019 13:00:00 13,3 8,9 18 10 - - NNW 1011,8 15 0,0
21.05.2019 12:00:00 13,3 7,8 9 5 - - - 1012,2 16 0,5
21.05.2019 11:00:00 12,8 8,3 8 4 - - - 1012,1 16 0,0
21.05.2019 10:00:00 12,2 8,3 5 3 - - - 1011,8 16 0,5
21.05.2019 09:00:00 10,6 9,4 9 5 - - - 1011,9 10 0,3
21.05.2019 08:00:00 10,6 8,9 5 3 - - SSE 1011,3 6 1,0
21.05.2019 07:00:00 10,6 8,9 8 4 - - SSE 1011,5 15 0,0
21.05.2019 06:00:00 10,0 8,3 8 4 - - S 1011,5 6 0,8
21.05.2019 05:00:00 10,0 8,3 5 3 - - SE 1011,3 6 0,3
21.05.2019 04:00:00 10,0 8,3 0 0 - - N 1011,4 16 0,3
21.05.2019 03:00:00 10,6 8,9 0 0 - - N 1011,8 16 0,3
21.05.2019 02:00:00 10,0 8,9 0 0 - - N 1011,7 16 0,3
21.05.2019 01:00:00 10,0 8,9 0 0 - - N 1012,1 15 0,3
21.05.2019 00:00:00 10,0 8,9 5 3 - - ESE 1012,4 13 0,0
20.05.2019 23:00:00 10,0 8,3 5 3 - - S 1012,3 16 0,0
20.05.2019 22:00:00 10,6 8,3 13 7 - - S 1013,1 4,0 0,8
20.05.2019 21:00:00 11,7 6,7 8 4 - - SSW 1013,0 16 0,0
20.05.2019 20:00:00 13,9 4,4 8 4 - - - 1012,5 16 -
20.05.2019 19:00:00 15,0 4,4 5 3 - - - 1012,5 16 -
20.05.2019 18:00:00 16,1 4,4 9 5 - - - 1013,4 16 -
20.05.2019 17:00:00 16,7 4,4 15 8 - - W 1013,5 16 -
20.05.2019 16:00:00 18,3 3,9 22 12 - - WNW 1012,9 16 -
20.05.2019 15:00:00 19,4 4,4 16 9 - - WSW 1013,1 16 -
20.05.2019 14:00:00 18,9 3,9 11 6 - - - 1013,2 16 -
20.05.2019 13:00:00 16,7 3,9 0 0 - - N 1014,0 16 -
20.05.2019 12:00:00 15,6 5,6 0 0 - - N 1014,2 16 -
20.05.2019 11:00:00 14,4 7,2 8 4 - - S 1014,0 16 -
20.05.2019 10:00:00 13,3 7,2 8 4 - - ESE 1014,4 16 -
20.05.2019 09:00:00 11,1 7,8 0 0 - - N 1014,1 16 -
20.05.2019 08:00:00 10,0 7,2 0 0 - - N 1014,0 16 -
20.05.2019 07:00:00 8,9 7,8 0 0 - - N 1013,8 16 -
20.05.2019 06:00:00 8,9 7,2 8 4 - - S 1012,8 16 -
20.05.2019 05:00:00 8,9 7,2 0 0 - - N 1012,7 16 -
20.05.2019 04:00:00 8,9 7,2 0 0 - - N 1012,8 16 -
20.05.2019 03:00:00 8,9 7,2 0 0 - - N 1012,8 16 -
20.05.2019 02:00:00 8,3 6,7 0 0 - - N 1012,4 16 -
20.05.2019 01:00:00 9,4 7,2 0 0 - - N 1012,1 16 -
20.05.2019 00:00:00 10,6 7,8 0 0 - - N 1011,6 16 -
19.05.2019 23:00:00 11,1 7,8 0 0 - - N 1011,7 15 -
19.05.2019 22:00:00 10,6 7,8 0 0 - - N 1011,3 16 -
19.05.2019 21:00:00 11,7 7,8 0 0 - - N 1010,4 16 -
19.05.2019 20:00:00 12,8 7,2 5 3 - - SSW 1009,5 16 -
19.05.2019 19:00:00 13,9 7,2 13 7 - - SSE 1008,6 16 -
19.05.2019 18:00:00 14,4 6,1 15 8 - - SSE 1008,0 16 -
19.05.2019 17:00:00 14,4 6,7 18 10 - - SSE 1007,6 16 -
19.05.2019 16:00:00 13,9 6,7 16 9 - - S 1007,6 16 -
19.05.2019 15:00:00 13,3 7,2 15 8 - - SSE 1007,7 16 -
19.05.2019 14:00:00 12,2 6,7 13 7 - - S 1007,8 16 0,0
19.05.2019 13:00:00 11,7 7,8 15 8 - - SSE 1007,6 10 0,3
19.05.2019 12:00:00 12,2 7,2 11 6 - - - 1006,7 16 2,0
19.05.2019 11:00:00 11,1 6,7 15 8 - - SSE 1006,2 10 1,3
19.05.2019 10:00:00 11,7 7,8 8 4 - - SSE 1006,3 16 -
19.05.2019 09:00:00 9,4 6,1 5 3 - - ENE 1006,6 16 0,3
19.05.2019 08:00:00 8,3 6,1 0 0 - - N 1006,1 16 0,0
19.05.2019 07:00:00 7,8 5,6 8 4 - - W 1005,4 15 0,0
19.05.2019 06:00:00 8,3 5,6 0 0 - - N 1004,6 13 4,8
19.05.2019 05:00:00 8,9 7,8 0 0 - - N 1003,9 4,8 1,0
19.05.2019 04:00:00 8,9 7,8 5 3 - - WNW 1004,6 16 0,0
19.05.2019 03:00:00 8,3 7,2 0 0 - - N 1005,3 16 -
19.05.2019 02:00:00 7,8 6,7 0 0 - - N 1005,8 16 -
19.05.2019 01:00:00 8,3 6,7 0 0 - - N 1006,3 16 -
19.05.2019 00:00:00 8,9 7,8 8 4 - - SSW 1006,5 16 -
18.05.2019 23:00:00 10,0 8,3 5 3 - - - 1006,9 10 0,3

tt = temperature
td = dewpoint
ff = wind speed
fx = gusts
dd = wind direction
ppp = reduced air pressure
vv = visibility
rr = precipitation

Next stations